Time,TemperatureF,DewpointF,PressureIn,WindDirection,WindDirectionDegrees,WindSpeedMPH,WindSpeedGustMPH,Humidity,HourlyPrecipIn,Conditions,Clouds,dailyrainin,SoftwareType,DateUTC
2013-07-11 00:00:00,68.1,62.4,29.80,West,267,0.0,13.0,82,0.00,,,0.00,Wunderground v.1.15,2013-07-11 07:00:00,
2013-07-11 00:06:00,68.1,62.4,29.80,West,267,0.0,13.0,82,0.00,,,0.00,Wunderground v.1.15,2013-07-11 07:06:00,
2013-07-11 00:11:00,68.1,62.4,29.80,West,267,0.0,13.0,82,0.00,,,0.00,Wunderground v.1.15,2013-07-11 07:11:00,
2013-07-11 00:16:00,68.1,62.4,29.80,West,267,0.0,13.0,82,0.00,,,0.00,Wunderground v.1.15,2013-07-11 07:16:00,
2013-07-11 00:21:00,68.1,62.4,29.80,West,267,0.0,13.0,82,0.00,,,0.00,Wunderground v.1.15,2013-07-11 07:21:00,
2013-07-11 00:26:00,68.0,62.6,29.81,West,267,0.0,13.0,83,0.00,,,0.00,Wunderground v.1.15,2013-07-11 07:26:00,
2013-07-11 00:31:00,68.0,62.3,29.80,West,271,0.0,13.0,82,0.00,,,0.00,Wunderground v.1.15,2013-07-11 07:31:00,
2013-07-11 00:36:00,67.9,62.2,29.81,West,271,1.0,13.0,82,0.00,,,0.00,Wunderground v.1.15,2013-07-11 07:36:00,
2013-07-11 00:41:00,67.8,62.1,29.81,West,271,0.0,13.0,82,0.00,,,0.00,Wunderground v.1.15,2013-07-11 07:41:00,
2013-07-11 00:46:00,67.7,62.0,29.81,West,271,0.0,13.0,82,0.00,,,0.00,Wunderground v.1.15,2013-07-11 07:46:00,
2013-07-11 00:51:00,67.6,61.9,29.81,West,271,0.0,13.0,82,0.00,,,0.00,Wunderground v.1.15,2013-07-11 07:51:00,
2013-07-11 00:56:00,67.5,61.8,29.81,West,271,0.0,13.0,82,0.00,,,0.00,Wunderground v.1.15,2013-07-11 07:56:00,
2013-07-11 01:01:00,67.3,62.0,29.81,West,271,0.0,13.0,83,0.00,,,0.00,Wunderground v.1.15,2013-07-11 08:01:00,
2013-07-11 01:07:00,67.0,61.7,29.82,West,267,1.0,13.0,83,0.00,,,0.00,Wunderground v.1.15,2013-07-11 08:07:00,
2013-07-11 01:12:00,66.8,61.8,29.82,West,267,1.0,13.0,84,0.00,,,0.00,Wunderground v.1.15,2013-07-11 08:12:00,
2013-07-11 01:17:00,66.6,61.6,29.82,West,266,0.0,13.0,84,0.00,,,0.00,Wunderground v.1.15,2013-07-11 08:17:00,
2013-07-11 01:22:00,66.5,61.5,29.82,West,266,0.0,13.0,84,0.00,,,0.00,Wunderground v.1.15,2013-07-11 08:22:00,
2013-07-11 01:27:00,66.3,61.7,29.82,West,266,0.0,13.0,85,0.00,,,0.00,Wunderground v.1.15,2013-07-11 08:27:00,
2013-07-11 01:32:00,66.2,61.6,29.83,West,266,0.0,13.0,85,0.00,,,0.00,Wunderground v.1.15,2013-07-11 08:32:00,
2013-07-11 01:37:00,66.0,61.4,29.83,West,265,0.0,13.0,85,0.00,,,0.00,Wunderground v.1.15,2013-07-11 08:37:00,
2013-07-11 01:42:00,65.9,61.6,29.83,West,266,0.0,13.0,86,0.00,,,0.00,Wunderground v.1.15,2013-07-11 08:42:00,
2013-07-11 01:47:00,65.9,61.6,29.83,West,265,0.0,13.0,86,0.00,,,0.00,Wunderground v.1.15,2013-07-11 08:47:00,
2013-07-11 01:53:00,65.8,61.5,29.83,West,266,0.0,13.0,86,0.00,,,0.00,Wunderground v.1.15,2013-07-11 08:53:00,
2013-07-11 01:59:00,65.7,61.4,29.82,West,266,0.0,13.0,86,0.00,,,0.00,Wunderground v.1.15,2013-07-11 08:59:00,
2013-07-11 02:04:00,65.6,61.6,29.83,West,265,0.0,13.0,87,0.00,,,0.00,Wunderground v.1.15,2013-07-11 09:04:00,
2013-07-11 02:09:00,65.6,61.6,29.83,West,266,0.0,13.0,87,0.00,,,0.00,Wunderground v.1.15,2013-07-11 09:09:00,
2013-07-11 02:14:00,65.5,61.5,29.83,West,265,0.0,13.0,87,0.00,,,0.00,Wunderground v.1.15,2013-07-11 09:14:00,
2013-07-11 02:19:00,65.4,61.4,29.82,West,266,0.0,13.0,87,0.00,,,0.00,Wunderground v.1.15,2013-07-11 09:19:00,
2013-07-11 02:24:00,65.4,61.4,29.83,West,266,0.0,13.0,87,0.00,,,0.00,Wunderground v.1.15,2013-07-11 09:24:00,
2013-07-11 02:29:00,65.4,61.4,29.83,West,265,0.0,13.0,87,0.00,,,0.00,Wunderground v.1.15,2013-07-11 09:29:00,
2013-07-11 02:34:00,65.4,61.4,29.83,West,266,0.0,13.0,87,0.00,,,0.00,Wunderground v.1.15,2013-07-11 09:34:00,
2013-07-11 02:40:00,65.3,61.7,29.83,West,265,0.0,13.0,88,0.00,,,0.00,Wunderground v.1.15,2013-07-11 09:40:00,
2013-07-11 02:45:00,65.3,61.7,29.83,West,265,0.0,13.0,88,0.00,,,0.00,Wunderground v.1.15,2013-07-11 09:45:00,
2013-07-11 02:50:00,65.3,61.7,29.83,West,266,0.0,13.0,88,0.00,,,0.00,Wunderground v.1.15,2013-07-11 09:50:00,
2013-07-11 02:55:00,65.3,61.7,29.82,West,266,0.0,13.0,88,0.00,,,0.00,Wunderground v.1.15,2013-07-11 09:55:00,
2013-07-11 03:01:00,65.3,61.7,29.82,West,266,0.0,13.0,88,0.00,,,0.00,Wunderground v.1.15,2013-07-11 10:01:00,
2013-07-11 03:06:00,65.3,61.7,29.82,West,266,0.0,13.0,88,0.00,,,0.00,Wunderground v.1.15,2013-07-11 10:06:00,
2013-07-11 03:11:00,65.3,61.7,29.81,West,265,0.0,13.0,88,0.00,,,0.00,Wunderground v.1.15,2013-07-11 10:11:00,
2013-07-11 03:17:00,65.4,61.8,29.82,West,266,0.0,13.0,88,0.00,,,0.00,Wunderground v.1.15,2013-07-11 10:17:00,
2013-07-11 03:23:00,65.4,61.4,29.81,West,266,0.0,13.0,87,0.00,,,0.00,Wunderground v.1.15,2013-07-11 10:23:00,
2013-07-11 03:28:00,65.3,61.7,29.82,West,266,0.0,13.0,88,0.00,,,0.00,Wunderground v.1.15,2013-07-11 10:28:00,
2013-07-11 03:33:00,65.3,61.7,29.82,West,266,0.0,13.0,88,0.00,,,0.00,Wunderground v.1.15,2013-07-11 10:33:00,
2013-07-11 03:39:00,65.3,61.7,29.82,West,265,0.0,13.0,88,0.00,,,0.00,Wunderground v.1.15,2013-07-11 10:39:00,
2013-07-11 03:44:00,65.2,61.6,29.81,West,266,0.0,13.0,88,0.00,,,0.00,Wunderground v.1.15,2013-07-11 10:44:00,
2013-07-11 03:49:00,65.2,61.6,29.81,West,266,0.0,13.0,88,0.00,,,0.00,Wunderground v.1.15,2013-07-11 10:49:00,
2013-07-11 03:55:00,65.1,61.5,29.81,West,265,0.0,13.0,88,0.00,,,0.00,Wunderground v.1.15,2013-07-11 10:55:00,
2013-07-11 04:00:00,65.1,61.5,29.81,West,266,0.0,13.0,88,0.00,,,0.00,Wunderground v.1.15,2013-07-11 11:00:00,
2013-07-11 07:43:00,66.5,62.5,29.84,West,265,0.0,3.0,87,0.00,,,0.00,Wunderground v.1.15,2013-07-11 14:43:00,
2013-07-11 07:50:00,66.7,62.4,29.84,West,265,0.0,3.0,86,0.00,,,0.00,Wunderground v.1.15,2013-07-11 14:50:00,
2013-07-11 07:55:00,66.9,62.6,29.85,West,265,0.0,3.0,86,0.00,,,0.00,Wunderground v.1.15,2013-07-11 14:55:00,
2013-07-11 08:00:00,67.0,62.7,29.85,West,265,0.0,3.0,86,0.00,,,0.00,Wunderground v.1.15,2013-07-11 15:00:00,
2013-07-11 08:05:00,67.2,63.2,29.85,West,265,0.0,3.0,87,0.00,,,0.00,Wunderground v.1.15,2013-07-11 15:05:00,
2013-07-11 08:10:00,67.2,62.5,29.85,West,265,0.0,3.0,85,0.00,,,0.00,Wunderground v.1.15,2013-07-11 15:10:00,
2013-07-11 08:15:00,67.3,63.0,29.85,West,265,0.0,3.0,86,0.00,,,0.00,Wunderground v.1.15,2013-07-11 15:15:00,
2013-07-11 08:21:00,67.4,62.7,29.85,West,265,0.0,3.0,85,0.00,,,0.00,Wunderground v.1.15,2013-07-11 15:21:00,
2013-07-11 08:27:00,67.5,63.2,29.85,West,265,0.0,3.0,86,0.00,,,0.00,Wunderground v.1.15,2013-07-11 15:27:00,
2013-07-11 08:32:00,67.6,62.9,29.86,West,265,0.0,3.0,85,0.00,,,0.00,Wunderground v.1.15,2013-07-11 15:32:00,
2013-07-11 08:37:00,67.6,62.6,29.86,West,265,0.0,3.0,84,0.00,,,0.00,Wunderground v.1.15,2013-07-11 15:37:00,
2013-07-11 08:42:00,67.6,62.6,29.86,West,265,0.0,3.0,84,0.00,,,0.00,Wunderground v.1.15,2013-07-11 15:42:00,
2013-07-11 08:47:00,67.7,63.0,29.86,West,265,0.0,3.0,85,0.00,,,0.00,Wunderground v.1.15,2013-07-11 15:47:00,
2013-07-11 08:52:00,67.8,63.1,29.86,West,265,0.0,3.0,85,0.00,,,0.00,Wunderground v.1.15,2013-07-11 15:52:00,
2013-07-11 08:57:00,67.8,63.1,29.86,West,265,0.0,3.0,85,0.00,,,0.00,Wunderground v.1.15,2013-07-11 15:57:00,
2013-07-11 09:02:00,67.9,62.9,29.86,West,265,0.0,3.0,84,0.00,,,0.00,Wunderground v.1.15,2013-07-11 16:02:00,
2013-07-11 09:08:00,67.9,62.9,29.86,West,265,0.0,3.0,84,0.00,,,0.00,Wunderground v.1.15,2013-07-11 16:08:00,
2013-07-11 09:13:00,67.9,62.9,29.86,West,265,0.0,3.0,84,0.00,,,0.00,Wunderground v.1.15,2013-07-11 16:13:00,
2013-07-11 09:18:00,68.0,63.0,29.86,West,265,0.0,3.0,84,0.00,,,0.00,Wunderground v.1.15,2013-07-11 16:18:00,
2013-07-11 09:23:00,68.1,63.1,29.86,West,265,0.0,3.0,84,0.00,,,0.00,Wunderground v.1.15,2013-07-11 16:23:00,
2013-07-11 09:29:00,68.3,62.9,29.86,West,265,0.0,3.0,83,0.00,,,0.00,Wunderground v.1.15,2013-07-11 16:29:00,
2013-07-11 09:35:00,68.5,63.5,29.86,West,265,0.0,3.0,84,0.00,,,0.00,Wunderground v.1.15,2013-07-11 16:35:00,
2013-07-11 09:40:00,68.7,63.3,29.86,West,265,0.0,3.0,83,0.00,,,0.00,Wunderground v.1.15,2013-07-11 16:40:00,
2013-07-11 09:45:00,68.8,63.1,29.86,West,265,0.0,3.0,82,0.00,,,0.00,Wunderground v.1.15,2013-07-11 16:45:00,
2013-07-11 09:50:00,69.0,63.3,29.86,West,265,0.0,3.0,82,0.00,,,0.00,Wunderground v.1.15,2013-07-11 16:50:00,
2013-07-11 09:56:00,69.2,63.5,29.86,West,265,0.0,3.0,82,0.00,,,0.00,Wunderground v.1.15,2013-07-11 16:56:00,
2013-07-11 10:02:00,69.5,63.8,29.86,West,265,0.0,3.0,82,0.00,,,0.00,Wunderground v.1.15,2013-07-11 17:02:00,
2013-07-11 10:07:00,69.8,64.1,29.86,West,265,0.0,3.0,82,0.00,,,0.00,Wunderground v.1.15,2013-07-11 17:07:00,
2013-07-11 10:12:00,70.1,64.0,29.86,West,265,0.0,3.0,81,0.00,,,0.00,Wunderground v.1.15,2013-07-11 17:12:00,
2013-07-11 10:18:00,70.5,64.0,29.86,West,265,0.0,3.0,80,0.00,,,0.00,Wunderground v.1.15,2013-07-11 17:18:00,
2013-07-11 10:23:00,70.8,64.3,29.86,West,265,0.0,3.0,80,0.00,,,0.00,Wunderground v.1.15,2013-07-11 17:23:00,
2013-07-11 10:28:00,71.0,64.2,29.86,West,265,0.0,3.0,79,0.00,,,0.00,Wunderground v.1.15,2013-07-11 17:28:00,
2013-07-11 10:33:00,71.3,64.1,29.86,West,265,0.0,3.0,78,0.00,,,0.00,Wunderground v.1.15,2013-07-11 17:33:00,
2013-07-11 10:39:00,71.5,64.3,29.86,West,265,0.0,3.0,78,0.00,,,0.00,Wunderground v.1.15,2013-07-11 17:39:00,
2013-07-11 10:44:00,71.7,64.8,29.86,West,265,0.0,3.0,79,0.00,,,0.00,Wunderground v.1.15,2013-07-11 17:44:00,
2013-07-11 10:51:00,71.9,65.0,29.86,West,265,0.0,3.0,79,0.00,,,0.00,Wunderground v.1.15,2013-07-11 17:51:00,
2013-07-11 10:56:00,72.1,65.2,29.86,West,265,0.0,3.0,79,0.00,,,0.00,Wunderground v.1.15,2013-07-11 17:56:00,
2013-07-11 11:03:00,72.4,65.5,29.86,West,265,0.0,3.0,79,0.00,,,0.00,Wunderground v.1.15,2013-07-11 18:03:00,
2013-07-11 11:08:00,72.7,65.4,29.86,West,265,0.0,3.0,78,0.00,,,0.00,Wunderground v.1.15,2013-07-11 18:08:00,
2013-07-11 11:13:00,73.1,65.1,29.86,West,265,0.0,3.0,76,0.00,,,0.00,Wunderground v.1.15,2013-07-11 18:13:00,
2013-07-11 11:18:00,73.4,65.0,29.86,West,265,0.0,3.0,75,0.00,,,0.00,Wunderground v.1.15,2013-07-11 18:18:00,
2013-07-11 11:25:00,73.8,65.8,29.86,West,265,0.0,3.0,76,0.00,,,0.00,Wunderground v.1.15,2013-07-11 18:25:00,
2013-07-11 11:30:00,74.2,65.8,29.86,West,265,0.0,3.0,75,0.00,,,0.00,Wunderground v.1.15,2013-07-11 18:30:00,
2013-07-11 11:35:00,74.5,65.7,29.86,West,265,0.0,3.0,74,0.00,,,0.00,Wunderground v.1.15,2013-07-11 18:35:00,
2013-07-11 11:40:00,74.8,66.3,29.86,West,265,0.0,3.0,75,0.00,,,0.00,Wunderground v.1.15,2013-07-11 18:40:00,
2013-07-11 11:46:00,74.9,65.3,29.86,West,265,0.0,3.0,72,0.00,,,0.00,Wunderground v.1.15,2013-07-11 18:46:00,
2013-07-11 11:51:00,75.0,65.8,29.86,West,265,1.0,3.0,73,0.00,,,0.00,Wunderground v.1.15,2013-07-11 18:51:00,
2013-07-11 11:57:00,75.0,65.8,29.86,West,265,1.0,5.0,73,0.00,,,0.00,Wunderground v.1.15,2013-07-11 18:57:00,
2013-07-11 12:03:00,75.1,65.9,29.85,West,265,0.0,3.0,73,0.00,,,0.00,Wunderground v.1.15,2013-07-11 19:03:00,
2013-07-11 12:09:00,75.1,65.9,29.86,West,265,1.0,4.0,73,0.00,,,0.00,Wunderground v.1.15,2013-07-11 19:09:00,
2013-07-11 12:15:00,75.3,66.0,29.86,West,266,1.0,5.0,73,0.00,,,0.00,Wunderground v.1.15,2013-07-11 19:15:00,
2013-07-11 12:21:00,75.4,66.1,29.86,West,269,1.0,3.0,73,0.00,,,0.00,Wunderground v.1.15,2013-07-11 19:21:00,
2013-07-11 12:27:00,75.5,65.8,29.86,West,271,1.0,4.0,72,0.00,,,0.00,Wunderground v.1.15,2013-07-11 19:27:00,
2013-07-11 12:32:00,75.6,65.9,29.86,West,269,1.0,3.0,72,0.00,,,0.00,Wunderground v.1.15,2013-07-11 19:32:00,
2013-07-11 12:38:00,76.0,66.3,29.85,West,269,1.0,3.0,72,0.00,,,0.00,Wunderground v.1.15,2013-07-11 19:38:00,
2013-07-11 12:43:00,76.5,66.8,29.85,WSW,254,0.0,3.0,72,0.00,,,0.00,Wunderground v.1.15,2013-07-11 19:43:00,
2013-07-11 12:50:00,76.8,66.7,29.85,WSW,252,1.0,5.0,71,0.00,,,0.00,Wunderground v.1.15,2013-07-11 19:50:00,
2013-07-11 12:56:00,77.0,66.5,29.85,WSW,254,1.0,3.0,70,0.00,,,0.00,Wunderground v.1.15,2013-07-11 19:56:00,
2013-07-11 13:02:00,77.4,67.3,29.85,WNW,287,1.0,3.0,71,0.00,,,0.00,Wunderground v.1.15,2013-07-11 20:02:00,
2013-07-11 13:07:00,77.8,67.2,29.85,West,277,2.0,5.0,70,0.00,,,0.00,Wunderground v.1.15,2013-07-11 20:07:00,
2013-07-11 13:14:00,77.7,67.1,29.85,WSW,244,1.0,3.0,70,0.00,,,0.00,Wunderground v.1.15,2013-07-11 20:14:00,
2013-07-11 13:20:00,77.9,66.9,29.85,West,277,1.0,3.0,69,0.00,,,0.00,Wunderground v.1.15,2013-07-11 20:20:00,
2013-07-11 13:26:00,78.1,66.7,29.85,West,269,1.0,4.0,68,0.00,,,0.00,Wunderground v.1.15,2013-07-11 20:26:00,
2013-07-11 13:32:00,78.3,67.7,29.85,West,271,1.0,3.0,70,0.00,,,0.00,Wunderground v.1.15,2013-07-11 20:32:00,
2013-07-11 13:37:00,78.3,67.7,29.84,West,261,1.0,3.0,70,0.00,,,0.00,Wunderground v.1.15,2013-07-11 20:37:00,
2013-07-11 13:44:00,78.3,67.3,29.84,West,266,1.0,3.0,69,0.00,,,0.00,Wunderground v.1.15,2013-07-11 20:44:00,
2013-07-11 13:50:00,77.9,66.9,29.84,West,272,2.0,2.0,69,0.00,,,0.00,Wunderground v.1.15,2013-07-11 20:50:00,
2013-07-11 13:55:00,77.9,67.3,29.84,West,271,1.0,5.0,70,0.00,,,0.00,Wunderground v.1.15,2013-07-11 20:55:00,
2013-07-11 14:01:00,78.0,67.0,29.84,West,271,1.0,3.0,69,0.00,,,0.00,Wunderground v.1.15,2013-07-11 21:01:00,
2013-07-11 14:06:00,77.8,67.2,29.83,WSW,246,1.0,3.0,70,0.00,,,0.00,Wunderground v.1.15,2013-07-11 21:06:00,
2013-07-11 14:11:00,77.8,67.6,29.83,WSW,254,1.0,3.0,71,0.00,,,0.00,Wunderground v.1.15,2013-07-11 21:11:00,
2013-07-11 14:17:00,78.1,67.9,29.83,WSW,258,1.0,3.0,71,0.00,,,0.00,Wunderground v.1.15,2013-07-11 21:17:00,
2013-07-11 14:22:00,78.4,67.8,29.82,West,274,0.0,3.0,70,0.00,,,0.00,Wunderground v.1.15,2013-07-11 21:22:00,
2013-07-11 14:27:00,78.5,67.5,29.82,West,267,1.0,7.0,69,0.00,,,0.00,Wunderground v.1.15,2013-07-11 21:27:00,
2013-07-11 14:32:00,78.2,67.2,29.82,West,270,2.0,6.0,69,0.00,,,0.00,Wunderground v.1.15,2013-07-11 21:32:00,
2013-07-11 14:37:00,77.8,67.2,29.82,West,273,2.0,6.0,70,0.00,,,0.00,Wunderground v.1.15,2013-07-11 21:37:00,
2013-07-11 14:42:00,77.2,67.1,29.83,WNW,300,3.0,6.0,71,0.00,,,0.00,Wunderground v.1.15,2013-07-11 21:42:00,
2013-07-11 14:47:00,76.3,67.0,29.83,WSW,250,4.0,6.0,73,0.00,,,0.00,Wunderground v.1.15,2013-07-11 21:47:00,
2013-07-11 14:53:00,75.4,66.9,29.83,West,272,4.0,4.0,75,0.00,,,0.00,Wunderground v.1.15,2013-07-11 21:53:00,
2013-07-11 14:58:00,75.0,66.5,29.83,West,269,3.0,8.0,75,0.00,,,0.00,Wunderground v.1.15,2013-07-11 21:58:00,
2013-07-11 15:03:00,74.0,66.3,29.83,West,280,3.0,9.0,77,0.00,,,0.00,Wunderground v.1.15,2013-07-11 22:03:00,
2013-07-11 15:08:00,73.7,66.4,29.83,WNW,284,3.0,9.0,78,0.00,,,0.00,Wunderground v.1.15,2013-07-11 22:08:00,
2013-07-11 15:14:00,73.5,66.2,29.83,West,273,2.0,3.0,78,0.00,,,0.00,Wunderground v.1.15,2013-07-11 22:14:00,
2013-07-11 15:19:00,73.5,66.6,29.82,West,274,2.0,3.0,79,0.00,,,0.00,Wunderground v.1.15,2013-07-11 22:19:00,
2013-07-11 15:24:00,73.6,66.7,29.82,West,275,1.0,5.0,79,0.00,,,0.00,Wunderground v.1.15,2013-07-11 22:24:00,
2013-07-11 15:29:00,73.9,67.0,29.82,West,274,1.0,5.0,79,0.00,,,0.00,Wunderground v.1.15,2013-07-11 22:29:00,
2013-07-11 15:34:00,74.3,67.0,29.82,West,274,0.0,4.0,78,0.00,,,0.00,Wunderground v.1.15,2013-07-11 22:34:00,
2013-07-11 15:41:00,74.8,66.7,29.82,WNW,284,2.0,4.0,76,0.00,,,0.00,Wunderground v.1.15,2013-07-11 22:41:00,
2013-07-11 15:47:00,75.3,67.2,29.81,West,272,1.0,4.0,76,0.00,,,0.00,Wunderground v.1.15,2013-07-11 22:47:00,
2013-07-11 15:53:00,75.6,67.1,29.81,WSW,241,2.0,3.0,75,0.00,,,0.00,Wunderground v.1.15,2013-07-11 22:53:00,
2013-07-11 15:58:00,75.7,67.2,29.81,WSW,246,2.0,5.0,75,0.00,,,0.00,Wunderground v.1.15,2013-07-11 22:58:00,
2013-07-11 16:03:00,75.8,66.9,29.81,West,269,2.0,4.0,74,0.00,,,0.00,Wunderground v.1.15,2013-07-11 23:03:00,
2013-07-11 16:08:00,76.0,67.1,29.81,WNW,282,2.0,5.0,74,0.00,,,0.00,Wunderground v.1.15,2013-07-11 23:08:00,
2013-07-11 16:14:00,76.3,67.4,29.81,West,273,1.0,4.0,74,0.00,,,0.00,Wunderground v.1.15,2013-07-11 23:14:00,
2013-07-11 16:20:00,76.4,67.5,29.82,West,272,1.0,1.0,74,0.00,,,0.00,Wunderground v.1.15,2013-07-11 23:20:00,
2013-07-11 16:25:00,76.1,66.8,29.81,West,265,2.0,6.0,73,0.00,,,0.00,Wunderground v.1.15,2013-07-11 23:25:00,
2013-07-11 16:30:00,75.9,67.0,29.81,West,281,2.0,3.0,74,0.00,,,0.00,Wunderground v.1.15,2013-07-11 23:30:00,
2013-07-11 16:38:00,76.1,66.8,29.81,West,259,2.0,7.0,73,0.00,,,0.00,Wunderground v.1.15,2013-07-11 23:38:00,
2013-07-11 16:43:00,75.7,66.8,29.81,WNW,282,3.0,8.0,74,0.00,,,0.00,Wunderground v.1.15,2013-07-11 23:43:00,
2013-07-11 16:48:00,75.6,66.7,29.81,West,272,2.0,8.0,74,0.00,,,0.00,Wunderground v.1.15,2013-07-11 23:48:00,
2013-07-11 16:53:00,75.3,66.4,29.81,West,268,2.0,4.0,74,0.00,,,0.00,Wunderground v.1.15,2013-07-11 23:53:00,
2013-07-11 16:58:00,75.1,66.2,29.81,West,269,2.0,7.0,74,0.00,,,0.00,Wunderground v.1.15,2013-07-11 23:58:00,
2013-07-11 17:03:00,75.0,66.5,29.81,West,273,2.0,5.0,75,0.00,,,0.00,Wunderground v.1.15,2013-07-12 00:03:00,
2013-07-11 17:09:00,75.1,66.6,29.81,WNW,287,1.0,5.0,75,0.00,,,0.00,Wunderground v.1.15,2013-07-12 00:09:00,
2013-07-11 17:14:00,75.2,66.7,29.81,WNW,288,0.0,3.0,75,0.00,,,0.00,Wunderground v.1.15,2013-07-12 00:14:00,
2013-07-11 17:20:00,75.2,66.3,29.80,West,268,1.0,3.0,74,0.00,,,0.00,Wunderground v.1.15,2013-07-12 00:20:00,
2013-07-11 17:26:00,75.0,66.5,29.80,West,272,1.0,3.0,75,0.00,,,0.00,Wunderground v.1.15,2013-07-12 00:26:00,
2013-07-11 17:31:00,75.0,66.5,29.80,West,270,1.0,3.0,75,0.00,,,0.00,Wunderground v.1.15,2013-07-12 00:31:00,
2013-07-11 17:37:00,74.7,66.2,29.80,West,277,1.0,8.0,75,0.00,,,0.00,Wunderground v.1.15,2013-07-12 00:37:00,
2013-07-11 17:42:00,74.6,66.1,29.80,West,272,2.0,4.0,75,0.00,,,0.00,Wunderground v.1.15,2013-07-12 00:42:00,
2013-07-11 17:47:00,74.3,65.9,29.79,West,271,2.0,5.0,75,0.00,,,0.00,Wunderground v.1.15,2013-07-12 00:47:00,
2013-07-11 17:54:00,74.4,66.3,29.79,West,272,1.0,3.0,76,0.00,,,0.00,Wunderground v.1.15,2013-07-12 00:54:00,
2013-07-11 17:59:00,74.5,66.1,29.79,West,276,1.0,6.0,75,0.00,,,0.00,Wunderground v.1.15,2013-07-12 00:59:00,
2013-07-11 18:04:00,74.5,66.1,29.79,West,274,1.0,3.0,75,0.00,,,0.00,Wunderground v.1.15,2013-07-12 01:04:00,
2013-07-11 18:09:00,74.6,66.5,29.79,West,267,1.0,3.0,76,0.00,,,0.00,Wunderground v.1.15,2013-07-12 01:09:00,
2013-07-11 18:14:00,74.8,66.3,29.79,West,271,1.0,3.0,75,0.00,,,0.00,Wunderground v.1.15,2013-07-12 01:14:00,
2013-07-11 18:19:00,74.9,66.4,29.79,West,271,1.0,3.0,75,0.00,,,0.00,Wunderground v.1.15,2013-07-12 01:19:00,
2013-07-11 18:25:00,75.2,66.3,29.79,West,271,1.0,4.0,74,0.00,,,0.00,Wunderground v.1.15,2013-07-12 01:25:00,
2013-07-11 18:30:00,75.6,66.7,29.79,West,280,2.0,2.0,74,0.00,,,0.00,Wunderground v.1.15,2013-07-12 01:30:00,
2013-07-11 18:38:00,75.7,66.4,29.79,West,261,2.0,4.0,73,0.00,,,0.00,Wunderground v.1.15,2013-07-12 01:38:00,
2013-07-11 18:43:00,75.8,66.5,29.79,West,264,1.0,4.0,73,0.00,,,0.00,Wunderground v.1.15,2013-07-12 01:43:00,
2013-07-11 18:48:00,76.3,66.6,29.79,West,269,1.0,4.0,72,0.00,,,0.00,Wunderground v.1.15,2013-07-12 01:48:00,
2013-07-11 18:55:00,76.6,66.5,29.79,West,269,1.0,3.0,71,0.00,,,0.00,Wunderground v.1.15,2013-07-12 01:55:00,
2013-07-11 19:00:00,76.7,66.6,29.79,West,269,0.0,3.0,71,0.00,,,0.00,Wunderground v.1.15,2013-07-12 02:00:00,
2013-07-11 19:06:00,77.0,66.9,29.79,West,269,0.0,3.0,71,0.00,,,0.00,Wunderground v.1.15,2013-07-12 02:06:00,
2013-07-11 19:12:00,77.1,67.0,29.79,West,269,0.0,3.0,71,0.00,,,0.00,Wunderground v.1.15,2013-07-12 02:12:00,
2013-07-11 19:17:00,77.1,66.6,29.79,West,269,0.0,3.0,70,0.00,,,0.00,Wunderground v.1.15,2013-07-12 02:17:00,
2013-07-11 19:23:00,76.6,66.5,29.79,West,271,1.0,5.0,71,0.00,,,0.00,Wunderground v.1.15,2013-07-12 02:23:00,
2013-07-11 19:28:00,76.0,66.3,29.79,West,271,1.0,5.0,72,0.00,,,0.00,Wunderground v.1.15,2013-07-12 02:28:00,
2013-07-11 19:35:00,75.5,66.2,29.79,West,271,0.0,3.0,73,0.00,,,0.00,Wunderground v.1.15,2013-07-12 02:35:00,
2013-07-11 19:40:00,74.9,66.1,29.79,West,271,0.0,3.0,74,0.00,,,0.00,Wunderground v.1.15,2013-07-12 02:40:00,
2013-07-11 19:47:00,74.4,66.0,29.79,West,271,0.0,3.0,75,0.00,,,0.00,Wunderground v.1.15,2013-07-12 02:47:00,
2013-07-11 19:52:00,74.0,65.6,29.79,West,271,0.0,3.0,75,0.00,,,0.00,Wunderground v.1.15,2013-07-12 02:52:00,
2013-07-11 19:57:00,73.6,65.6,29.79,West,271,0.0,3.0,76,0.00,,,0.00,Wunderground v.1.15,2013-07-12 02:57:00,
2013-07-11 20:02:00,73.3,65.7,29.79,West,271,0.0,3.0,77,0.00,,,0.00,Wunderground v.1.15,2013-07-12 03:02:00,
2013-07-11 20:07:00,73.1,65.5,29.79,West,271,0.0,3.0,77,0.00,,,0.00,Wunderground v.1.15,2013-07-12 03:07:00,
2013-07-11 20:12:00,72.9,65.3,29.80,West,271,0.0,3.0,77,0.00,,,0.00,Wunderground v.1.15,2013-07-12 03:12:00,
2013-07-11 20:18:00,72.6,65.3,29.80,West,271,0.0,4.0,78,0.00,,,0.00,Wunderground v.1.15,2013-07-12 03:18:00,
2013-07-11 20:23:00,72.2,65.0,29.79,West,271,0.0,3.0,78,0.00,,,0.00,Wunderground v.1.15,2013-07-12 03:23:00,
2013-07-11 20:28:00,71.8,64.9,29.80,West,271,0.0,3.0,79,0.00,,,0.00,Wunderground v.1.15,2013-07-12 03:28:00,
2013-07-11 20:33:00,71.4,64.5,29.80,West,271,0.0,3.0,79,0.00,,,0.00,Wunderground v.1.15,2013-07-12 03:33:00,
2013-07-11 20:38:00,71.1,64.6,29.80,West,271,0.0,3.0,80,0.00,,,0.00,Wunderground v.1.15,2013-07-12 03:38:00,
2013-07-11 20:43:00,70.7,64.2,29.80,West,271,0.0,3.0,80,0.00,,,0.00,Wunderground v.1.15,2013-07-12 03:43:00,
2013-07-11 20:48:00,70.4,64.3,29.81,West,271,1.0,5.0,81,0.00,,,0.00,Wunderground v.1.15,2013-07-12 03:48:00,
2013-07-11 20:53:00,70.0,63.9,29.81,West,271,1.0,3.0,81,0.00,,,0.00,Wunderground v.1.15,2013-07-12 03:53:00,
2013-07-11 20:58:00,69.6,63.9,29.81,West,271,0.0,3.0,82,0.00,,,0.00,Wunderground v.1.15,2013-07-12 03:58:00,
2013-07-11 21:01:00,69.4,63.7,29.81,West,271,0.0,3.0,82,0.00,,,0.00,Wunderground v.1.15,2013-07-12 04:01:00,
2013-07-11 21:04:00,69.2,63.5,29.81,West,271,0.0,3.0,82,0.00,,,0.00,Wunderground v.1.15,2013-07-12 04:04:00,
2013-07-11 21:09:00,68.8,63.4,29.81,West,270,0.0,3.0,83,0.00,,,0.00,Wunderground v.1.15,2013-07-12 04:09:00,
2013-07-11 21:11:00,68.7,63.3,29.81,West,270,0.0,3.0,83,0.00,,,0.00,Wunderground v.1.15,2013-07-12 04:11:00,
2013-07-11 21:16:00,68.4,63.0,29.81,West,270,0.0,3.0,83,0.00,,,0.00,Wunderground v.1.15,2013-07-12 04:16:00,
2013-07-11 21:21:00,68.2,63.2,29.82,West,270,0.0,3.0,84,0.00,,,0.00,Wunderground v.1.15,2013-07-12 04:21:00,
2013-07-11 21:26:00,68.0,63.0,29.82,West,270,0.0,3.0,84,0.00,,,0.00,Wunderground v.1.15,2013-07-12 04:26:00,
2013-07-11 21:31:00,67.8,63.1,29.82,West,269,0.0,3.0,85,0.00,,,0.00,Wunderground v.1.15,2013-07-12 04:31:00,
2013-07-11 21:33:00,67.7,63.0,29.82,West,270,0.0,3.0,85,0.00,,,0.00,Wunderground v.1.15,2013-07-12 04:33:00,
2013-07-11 21:39:00,67.6,62.9,29.82,West,270,0.0,3.0,85,0.00,,,0.00,Wunderground v.1.15,2013-07-12 04:39:00,
2013-07-11 21:44:00,67.4,62.7,29.83,West,269,0.0,3.0,85,0.00,,,0.00,Wunderground v.1.15,2013-07-12 04:44:00,
2013-07-11 21:49:00,67.3,62.6,29.83,West,270,0.0,3.0,85,0.00,,,0.00,Wunderground v.1.15,2013-07-12 04:49:00,
2013-07-11 21:54:00,67.1,62.8,29.83,West,269,0.0,3.0,86,0.00,,,0.00,Wunderground v.1.15,2013-07-12 04:54:00,
2013-07-11 21:59:00,66.9,62.6,29.83,West,270,0.0,3.0,86,0.00,,,0.00,Wunderground v.1.15,2013-07-12 04:59:00,
2013-07-11 22:04:00,66.8,62.5,29.83,West,270,0.0,3.0,86,0.00,,,0.00,Wunderground v.1.15,2013-07-12 05:04:00,
2013-07-11 22:10:00,66.6,62.6,29.83,West,270,0.0,3.0,87,0.00,,,0.00,Wunderground v.1.15,2013-07-12 05:10:00,
2013-07-11 22:15:00,66.5,62.5,29.83,West,270,0.0,3.0,87,0.00,,,0.00,Wunderground v.1.15,2013-07-12 05:15:00,
2013-07-11 22:20:00,66.3,62.3,29.83,West,269,0.0,3.0,87,0.00,,,0.00,Wunderground v.1.15,2013-07-12 05:20:00,
2013-07-11 22:25:00,66.1,62.1,29.83,West,270,0.0,3.0,87,0.00,,,0.00,Wunderground v.1.15,2013-07-12 05:25:00,
2013-07-11 22:30:00,66.0,62.3,29.83,West,270,0.0,3.0,88,0.00,,,0.00,Wunderground v.1.15,2013-07-12 05:30:00,
2013-07-11 22:35:00,65.8,62.1,29.83,West,269,0.0,3.0,88,0.00,,,0.00,Wunderground v.1.15,2013-07-12 05:35:00,
2013-07-11 22:40:00,65.6,61.9,29.83,West,270,0.0,3.0,88,0.00,,,0.00,Wunderground v.1.15,2013-07-12 05:40:00,
2013-07-11 22:45:00,65.5,62.2,29.83,West,269,0.0,3.0,89,0.00,,,0.00,Wunderground v.1.15,2013-07-12 05:45:00,
2013-07-11 22:51:00,65.3,62.0,29.83,West,269,0.0,3.0,89,0.00,,,0.00,Wunderground v.1.15,2013-07-12 05:51:00,
2013-07-11 22:56:00,65.1,61.8,29.83,West,270,0.0,3.0,89,0.00,,,0.00,Wunderground v.1.15,2013-07-12 05:56:00,
2013-07-11 23:01:00,64.9,61.6,29.83,West,270,0.0,3.0,89,0.00,,,0.00,Wunderground v.1.15,2013-07-12 06:01:00,
2013-07-11 23:06:00,64.7,61.4,29.83,West,270,0.0,3.0,89,0.00,,,0.00,Wunderground v.1.15,2013-07-12 06:06:00,
2013-07-11 23:11:00,64.6,61.6,29.83,West,270,0.0,3.0,90,0.00,,,0.00,Wunderground v.1.15,2013-07-12 06:11:00,
2013-07-11 23:16:00,64.5,61.5,29.83,West,269,0.0,3.0,90,0.00,,,0.00,Wunderground v.1.15,2013-07-12 06:16:00,
2013-07-11 23:21:00,64.3,61.3,29.83,West,270,0.0,3.0,90,0.00,,,0.00,Wunderground v.1.15,2013-07-12 06:21:00,
2013-07-11 23:26:00,64.1,61.1,29.83,West,270,0.0,3.0,90,0.00,,,0.00,Wunderground v.1.15,2013-07-12 06:26:00,
2013-07-11 23:31:00,64.0,61.0,29.83,West,269,0.0,3.0,90,0.00,,,0.00,Wunderground v.1.15,2013-07-12 06:31:00,
2013-07-11 23:36:00,63.9,61.2,29.83,West,270,0.0,3.0,91,0.00,,,0.00,Wunderground v.1.15,2013-07-12 06:36:00,
2013-07-11 23:41:00,63.7,61.0,29.83,West,270,0.0,3.0,91,0.00,,,0.00,Wunderground v.1.15,2013-07-12 06:41:00,
2013-07-11 23:46:00,63.6,60.9,29.83,West,270,0.0,3.0,91,0.00,,,0.00,Wunderground v.1.15,2013-07-12 06:46:00,
2013-07-11 23:51:00,63.4,60.7,29.83,West,270,0.0,3.0,91,0.00,,,0.00,Wunderground v.1.15,2013-07-12 06:51:00,
2013-07-11 23:57:00,63.3,60.6,29.83,West,269,0.0,3.0,91,0.00,,,0.00,Wunderground v.1.15,2013-07-12 06:57:00,